EHI
9 10 9 7 5 4 5 7 9 8 7 7 7 7 6 6 5 4 3 4 5 6 5 3 2 2 1 0 0 0 1 2 3 3 3 3 3 2 2 3 3 3 4
11 11 11 8 6 5 6 8 9 9 8 7 7 8 7 5 5 4 4 4 4 5 4 3 2 1 1 1 1 1 2 3 3 3 4 4 3 1 1 2 3 3 3
12 12 13 12 9 7 8 9 10 10 7 6 7 8 8 7 6 6 5 4 4 4 3 3 2 2 2 2 2 3 3 3 3 4 4 4 3 1 1 2 3 3 3
11 12 16 17 12 9 10 11 11 9 7 6 7 8 8 8 8 7 6 5 4 3 4 4 4 3 3 3 3 4 5 4 3 3 4 4 3 2 2 2 3 3 4
11 14 19 20 17 15 14 14 13 11 9 9 9 8 7 7 6 7 6 5 4 4 4 6 7 5 4 3 3 4 5 5 4 3 3 3 3 3 3 3 3 3 3
15 17 20 22 23 23 22 19 17 17 14 12 11 10 8 6 6 7 7 5 4 4 5 6 7 7 5 4 4 4 4 4 3 2 2 2 2 2 2 2 1 1 1
19 18 20 23 26 29 30 27 24 23 20 16 14 13 11 9 8 8 7 6 5 4 4 5 7 7 6 5 4 4 3 2 1 1 1 1 1 1 1 1 1 0 0
21 20 19 22 25 28 31 31 29 27 24 19 15 13 13 11 11 11 10 9 7 4 3 4 6 7 7 6 4 2 1 1 0 0 0 0 0 0 0 1 1 1 0
21 21 21 22 22 23 26 29 30 29 27 23 16 12 13 13 12 12 12 11 7 3 2 4 5 5 6 7 5 3 1 0 0 0 0 0 0 0 0 1 2 1 1
23 23 23 22 21 21 24 28 30 30 29 25 18 13 13 13 11 11 12 11 8 4 3 4 5 4 5 7 7 5 3 1 1 1 1 0 0 0 0 1 2 3 3
25 24 24 23 22 23 26 29 30 29 27 24 18 15 14 13 12 12 12 11 9 6 4 3 3 4 5 7 9 8 8 6 5 4 3 2 2 1 1 2 4 5 5
23 21 21 23 24 27 29 29 28 26 24 22 20 17 15 12 13 14 13 11 9 7 5 3 3 4 6 9 11 11 12 12 10 8 6 5 4 4 4 4 5 5 6
16 16 17 21 25 28 30 29 27 25 23 22 21 19 15 12 12 13 13 12 11 9 8 7 7 8 9 11 12 12 13 13 13 11 10 9 8 7 6 5 4 4 5
10 11 14 18 22 26 29 28 27 26 25 23 22 20 17 14 11 10 11 14 15 14 14 14 13 13 12 12 13 13 12 13 13 12 12 11 11 9 7 5 3 3 3
7 9 12 15 18 23 27 29 28 27 26 25 24 22 19 16 13 11 12 15 19 21 21 20 19 18 16 15 14 13 12 12 12 12 12 12 10 8 5 2 1 1 1
10 11 12 15 18 22 28 32 32 29 26 25 23 22 21 19 17 15 14 16 19 23 26 26 24 20 18 15 12 11 11 11 11 10 10 11 9 6 2 1 0 0 0
16 16 16 18 20 23 28 33 34 31 27 25 23 22 23 22 20 17 16 17 19 22 26 27 26 22 18 14 8 6 8 10 10 9 9 10 9 6 3 2 0 0 0
18 17 16 17 19 22 26 29 30 29 27 25 23 23 24 23 21 18 17 18 19 21 23 25 25 22 18 13 7 4 6 9 9 9 8 8 8 6 4 3 2 1 0
14 14 13 13 14 16 21 25 26 27 28 26 24 24 25 24 22 20 18 18 18 19 20 21 21 19 17 14 7 4 6 8 9 8 7 6 5 4 3 4 4 3 1
9 10 12 12 11 12 16 21 25 27 28 27 26 24 23 22 21 20 18 17 16 15 15 16 16 15 16 14 8 4 6 8 7 6 6 4 3 2 1 3 4 3 2
6 8 11 13 13 14 16 18 22 25 26 26 24 22 21 19 18 18 17 16 15 14 14 13 13 14 15 13 7 4 5 6 5 5 5 3 1 1 0 1 3 2 1
4 6 8 11 15 16 15 15 16 19 21 21 20 20 21 19 18 18 19 19 17 16 15 14 13 14 14 12 6 2 2 3 3 3 3 2 1 0 0 1 1 1 1
4 5 6 7 10 12 12 10 9 11 14 15 17 19 20 19 19 19 21 21 21 19 17 15 14 14 14 11 7 3 1 1 1 1 2 1 0 0 0 0 0 1 1
6 5 5 5 6 7 8 8 7 7 9 12 16 18 18 18 18 19 19 20 20 20 18 16 15 15 13 11 8 5 2 1 0 0 0 0 0 0 0 0 0 0 1
8 8 7 6 5 5 7 8 8 7 8 12 16 17 17 17 16 15 14 14 14 15 15 14 14 14 12 9 6 4 2 1 0 0 0 0 0 0 0 0 0 0 0
11 10 9 8 6 6 7 8 9 8 9 12 15 16 17 16 14 11 9 9 9 10 10 11 11 12 10 7 3 2 2 1 0 0 0 0 0 0 0 0 0 0 0
Wind_Speed
8 8 8 9 8 6 6 5 5 4 3 2 2 2 1 1 1 1 3 3 3 3 3 2 2 2 2 2 2 2 1 1 1 1 1 2 2 2 2 2 2 4 5
7 8 8 8 8 8 7 6 5 4 4 3 2 2 2 1 1 1 1 2 2 3 3 3 2 2 2 1 2 2 1 1 1 2 1 2 3 2 2 2 3 4 3
11 10 10 9 9 8 8 7 6 5 4 3 2 2 2 2 1 1 0 1 2 2 3 3 3 2 2 2 3 3 3 1 1 2 3 2 2 2 2 1 2 2 2
10 10 11 10 10 9 8 7 6 5 4 4 3 4 3 2 2 1 1 1 1 1 2 3 3 3 2 3 3 2 2 2 2 1 1 2 3 1 2 2 2 2 2
13 12 12 12 10 9 8 7 6 5 4 4 4 4 3 2 1 1 1 0 0 1 2 2 2 2 2 2 2 2 2 2 2 2 1 1 0 1 2 2 2 2 2
12 12 11 10 9 9 8 7 7 5 5 4 4 4 4 3 2 1 1 1 1 1 1 2 2 2 2 2 2 2 2 2 2 2 1 1 1 2 2 2 2 2 2
11 11 11 11 10 10 9 8 8 6 6 5 4 4 4 4 3 3 2 2 1 1 2 2 2 1 2 2 2 2 2 2 2 2 2 2 2 2 2 2 1 2 2
10 12 12 12 11 11 10 9 9 7 6 6 5 4 4 3 2 3 2 3 2 2 2 2 2 2 2 2 1 1 2 2 2 3 2 1 2 2 2 2 2 1 2
11 12 12 11 11 10 10 10 9 7 6 6 5 4 4 3 3 2 2 2 2 2 2 2 2 2 2 1 1 1 1 1 2 2 2 1 1 1 2 2 3 3 2
11 12 12 12 10 10 9 9 9 9 7 6 6 5 4 4 3 3 3 2 2 2 2 2 2 2 2 1 1 1 1 1 1 1 1 1 1 1 1 2 2 2 3
11 11 11 11 10 9 9 8 8 7 6 6 5 5 4 4 4 3 3 3 3 3 3 3 2 2 2 2 2 2 1 1 2 2 1 2 2 1 2 1 1 2 2
9 10 11 10 10 10 9 9 8 8 7 6 5 5 4 4 4 4 4 4 4 4 4 3 3 3 2 2 2 2 2 2 2 3 2 2 2 2 2 1 2 2 2
7 8 8 9 10 10 9 9 9 8 7 6 6 5 4 4 4 5 5 4 4 3 3 3 3 3 3 3 3 3 3 3 3 3 3 3 2 2 2 2 2 2 1
5 7 7 7 7 8 8 8 7 7 6 6 5 5 5 5 5 4 4 4 4 4 4 4 4 4 3 3 3 2 2 3 3 3 3 3 4 4 3 2 2 1 1
5 6 6 6 6 6 6 6 6 5 5 5 5 6 5 4 4 4 4 4 4 4 4 3 3 3 3 3 3 3 3 3 3 3 3 4 4 5 4 3 2 2 1
5 5 5 5 5 6 6 6 5 5 5 5 5 4 4 4 3 3 3 3 4 4 3 4 4 4 4 5 6 4 3 3 3 3 4 3 3 4 4 5 5 4 4
4 4 4 4 4 5 5 6 6 5 5 6 5 5 4 4 4 3 3 3 4 4 4 5 4 5 6 6 6 5 3 3 3 3 3 3 2 2 2 3 4 4 6
4 3 3 3 3 3 3 4 4 5 5 5 5 5 4 4 4 3 3 4 3 3 4 5 5 4 5 6 6 5 3 3 4 4 4 3 3 3 3 3 3 3 4
4 3 2 2 2 2 2 4 4 4 4 4 5 5 5 4 4 4 4 3 2 3 3 3 4 5 6 7 6 5 2 3 4 4 4 4 5 5 5 3 3 4 5
3 3 3 3 3 1 2 4 3 3 4 4 5 5 5 5 5 5 4 3 2 3 3 3 4 5 5 6 7 6 3 4 4 3 4 5 5 5 6 4 4 5 5
3 4 4 4 2 1 3 3 2 2 3 3 3 3 4 4 4 4 3 2 2 2 3 4 4 4 6 5 7 7 4 4 4 3 3 4 6 6 7 6 5 7 5
3 3 3 2 1 2 2 1 1 3 1 1 2 3 4 4 3 3 3 3 3 3 3 3 4 4 4 4 6 8 8 5 4 4 3 4 5 6 7 6 7 8 5
2 2 3 2 2 1 1 1 3 2 0 0 2 3 4 4 4 4 4 3 3 3 3 3 3 3 3 3 5 6 7 7 5 4 5 6 6 5 4 6 7 5 3
1 1 2 1 1 1 1 1 2 1 1 1 2 2 3 3 3 3 3 3 3 3 3 3 3 3 2 2 2 2 3 4 4 3 4 5 4 4 4 4 4 3 4
0 1 1 1 1 1 1 1 1 1 1 2 2 2 2 3 3 3 2 3 4 5 5 4 4 3 4 5 5 3 3 3 4 2 1 1 1 2 2 2 2 3 3
0 1 0 0 1 1 1 2 1 1 1 2 2 2 2 2 2 2 2 3 3 4 6 6 5 4 5 5 4 4 4 3 3 2 1 2 2 3 3 3 3 3 4
Wind_Direction
170 161 158 153 147 142 137 140 138 144 132 120 122 117 121 123 125 145 157 162 159 157 153 158 159 155 165 187 181 172 182 209 162 102 333 314 271 233 222 217 211 214 215
168 167 162 158 157 156 152 148 151 154 149 155 155 151 146 153 154 143 129 156 165 174 166 157 160 172 163 171 179 166 157 214 168 145 111 341 338 325 248 219 216 220 212
174 174 167 165 162 163 165 162 164 162 162 150 125 103 77 50 45 44 211 220 192 183 161 155 154 178 177 184 195 181 169 191 230 175 154 159 243 303 314 272 243 227 214
177 177 172 169 171 173 168 163 166 163 164 149 135 140 142 158 203 201 205 246 214 168 151 156 163 167 175 186 204 190 180 170 212 253 205 185 178 181 295 311 292 253 232
183 182 176 174 174 172 170 169 164 162 162 156 156 148 150 170 177 155 150 214 269 172 165 159 157 165 176 193 202 188 187 182 191 210 218 221 210 173 177 269 297 306 274
182 182 177 170 172 172 171 167 163 168 168 161 158 159 161 163 154 170 175 222 244 249 203 163 163 175 186 201 206 202 198 201 200 200 196 186 194 211 192 227 261 278 283
179 176 175 172 173 174 173 170 166 173 174 168 170 172 172 171 177 188 189 198 204 214 226 200 187 195 203 207 202 195 212 210 206 208 217 211 214 200 188 189 240 275 284
179 175 175 172 171 173 174 174 174 179 178 177 183 180 176 176 186 194 191 200 205 213 214 203 201 201 198 209 201 206 224 224 221 228 224 218 226 201 189 185 178 266 296
177 171 169 168 169 171 176 176 175 177 181 185 183 180 181 179 185 190 186 195 205 210 204 197 201 210 207 210 180 214 241 233 229 237 235 228 238 220 211 191 178 175 235
179 173 172 172 172 173 173 172 174 180 181 182 188 189 191 193 192 185 196 197 207 209 184 189 199 211 210 194 176 214 249 231 255 239 239 261 259 253 231 205 201 187 191
178 177 175 175 172 168 168 169 170 172 177 186 191 193 193 195 193 197 207 201 197 191 192 196 194 194 196 190 184 211 219 234 264 264 236 253 255 257 261 236 218 210 186
169 168 169 170 170 172 174 178 176 177 185 187 186 192 196 191 194 203 210 202 196 198 197 194 193 195 197 196 193 219 226 224 239 250 247 259 261 251 262 249 246 239 210
157 161 163 169 175 177 179 182 182 184 186 183 184 187 192 193 201 206 210 205 199 204 200 192 195 199 200 201 213 217 226 226 233 233 229 241 234 248 249 242 247 253 252
153 159 162 168 173 177 179 182 184 186 184 181 182 189 199 201 202 205 207 208 202 204 208 208 203 200 202 207 222 222 227 237 246 239 229 228 223 229 232 233 236 230 234
130 150 159 164 167 167 170 173 177 180 179 177 185 197 199 197 201 207 209 211 211 216 213 212 216 210 208 220 220 223 229 236 251 253 242 236 232 234 229 225 214 195 204
136 141 141 145 162 170 173 174 178 178 164 171 186 195 192 189 203 215 212 208 218 222 215 217 218 222 232 233 225 218 226 234 240 252 259 255 249 255 249 238 223 203 200
115 130 141 151 165 175 172 177 183 174 167 177 188 188 194 196 203 211 209 222 228 224 225 227 219 225 236 234 232 228 222 229 236 243 250 262 258 255 258 256 250 244 235
97 116 131 139 144 146 156 168 165 167 173 181 190 196 197 204 206 211 221 231 229 227 231 233 227 227 240 234 232 229 222 233 240 240 236 234 246 246 233 238 252 259 255
111 112 113 117 114 121 137 134 149 165 175 189 198 202 199 202 205 214 227 230 227 244 241 230 220 227 245 236 230 216 210 236 250 250 242 230 237 245 226 217 238 263 273
89 88 75 72 71 59 112 114 139 158 193 211 211 204 198 199 206 216 223 225 218 227 238 240 233 231 242 237 224 208 208 230 248 259 251 242 237 236 221 213 220 247 262
92 87 80 71 62 48 87 109 122 202 228 224 219 210 200 205 210 212 215 221 228 229 233 246 255 246 242 239 220 209 210 224 239 250 255 253 244 242 235 224 223 235 243
76 92 91 76 58 60 79 103 227 248 262 232 225 223 214 218 221 210 219 217 215 230 243 252 268 265 256 243 231 223 224 226 227 242 251 255 254 256 245 235 240 241 237
78 85 90 63 21 26 65 336 279 282 325 317 250 239 229 223 215 209 218 224 220 229 244 248 260 276 277 261 247 234 230 230 231 241 247 257 260 260 251 244 243 234 222
110 101 94 91 306 297 271 253 289 312 324 281 272 251 236 240 233 220 215 217 223 229 238 246 253 264 269 269 271 263 248 241 245 258 262 260 253 249 253 261 251 228 220
90 131 141 199 273 299 310 305 321 350 312 292 288 275 245 232 237 234 230 228 229 224 221 230 226 228 249 256 249 238 240 237 237 236 251 264 257 256 260 257 250 236 229
26 40 2 325 296 309 315 310 328 343 307 298 287 279 269 253 235 235 290 302 274 266 241 231 222 233 236 246 244 240 237 234 215 176 216 246 247 243 246 241 245 238 235